Regional Weather Roundup
Issued by NWS Sterling, VA

Home | Current Version | Previous Version | Text Only | Print | Product List | Glossary Off
Versions: 1 2 3 4 5 6 7 8 9 10 11 12 13 14 15 16 17 18 19 20 21 22 23 24 25 26 27

000
ASUS41 KLWX 291710
RWRLWX

REGIONAL WEATHER ROUNDUP
NATIONAL WEATHER SERVICE BALTIMORE MD/WASHINGTON DC
100 PM EDT FRI JUL 29 2016

Note: "FAIR" indicates few or no clouds below 12,000 feet
with no significant weather and/or obstructions to visibility.
 TC=TEMPERATURE CELSIUS

 * =Non NWS site. Station does not report precipitation (e.g. rain,
    snow, etc.), thunder, or fog.

DCZ001-MDZ009-015-VAZ040>042-051-053>054-291800-
WASHINGTON METRO

CITY           SKY/WX    TMP DP  RH WIND       PRES   REMARKS
WASHINGTON NAT FAIR      86  69  56 VRB5      29.87F HX  90
DULLES         FAIR      85  68  56 VRB6      29.89F
ANDREWS AFB    MOSUNNY   83  68  61 NE6       29.87F
FT BELVOIR     FAIR      85  68  56 VRB3      29.88S
LEESBURG*      PTSUNNY   86  72  62 NW7G16    29.90F HX  92
GAITHERSBURG*  MOSUNNY   82  70  65 CALM      29.92S

$$

MDZ006>007-011-014-291800-
BALTIMORE METRO

CITY           SKY/WX    TMP DP  RH WIND       PRES   REMARKS
BWI AIRPORT    MOSUNNY   85  67  54 N3        29.86F
MARTIN STATE   PTSUNNY   84  73  70 NW6       29.87F HX  91
ANNAPOLIS      MOSUNNY   84  70  62 N5        29.85F
FORT MEADE*    MOSUNNY   82  70  65 NW5       29.89S

$$

MDZ012-015-019>023-291800-
MARYLAND EASTERN SHORE

CITY           SKY/WX    TMP DP  RH WIND       PRES   REMARKS
OCEAN CITY       N/A    N/A N/A N/A MISG      29.84S
SALISBURY      CLOUDY    81  72  74 MISG      29.85S
BAY BRIDGE AP* SUNNY     82  72  69 N9        29.86F
CAMBRIDGE*     PTSUNNY   79  70  73 N5        29.86S
EASTON*        PTSUNNY   84  75  74 NE9       29.89F HX  92

$$

MDZ017>025-291800-
SOUTHERN MARYLAND

CITY           SKY/WX    TMP DP  RH WIND       PRES   REMARKS
PATUXENT RIVER NOT AVBL
ST INIGOES     PTSUNNY   84  72  67 VRB7      29.86S
LEONARDTOWN*     N/A     81  70  69 MISG        N/A

$$

MDZ003>005-291800-
NORTH CENTRAL MARYLAND

CITY           SKY/WX    TMP DP  RH WIND       PRES   REMARKS
FREDERICK*     MOSUNNY   88  70  55 N6        29.90F HX  92
HAGERSTOWN APT MOSUNNY   85  67  54 VRB3      29.90S

$$

MDZ501>502-291800-
WESTERN MARYLAND

CITY           SKY/WX    TMP DP  RH WIND       PRES   REMARKS
OAKLAND*         N/A     70  63  78 N3        30.05S
CUMBERLAND*    SUNNY     86  64  48 N6        29.96F

$$

VAZ025>031-291800-
SHENANDOAH VALLEY

CITY           SKY/WX    TMP DP  RH WIND       PRES   REMARKS
WINCHESTER*    FAIR      82  68  61 W7        29.92S
FRONT ROYAL*   PTSUNNY   81  70  69 N3        29.92S
LURAY*         NOT AVBL
NEW MARKET*    CLOUDY   N/A N/A N/A CALM      29.94S
STAUNTON*      PTSUNNY   79  68  69 NE9       29.99R
WAYNESBORO*    CLOUDY    78  66  66 N6        29.98S

$$

WVZ021-048>050-054>055-291800-
EASTERN WEST VIRGINIA PANHANDLE

CITY           SKY/WX    TMP DP  RH WIND       PRES   REMARKS
MARTINSBURG    FAIR      85  67  54 NW8       29.90F
PETERSBURG*    CLOUDY    80  71  72 CALM      29.96S

$$

VAZ036>039-050-291800-
CENTRAL FOOTHILLS

CITY           SKY/WX    TMP DP  RH WIND       PRES   REMARKS
CHARLOTTESVILL PTSUNNY   88  68  51 N9        29.93R HX  91
CULPEPER*      PTSUNNY   83  71  67 NW5       29.91F
ORANGE*          N/A     84  68  58 W5        29.93S
GORDONSVILLE*  CLOUDY    83  70  65 NW6       29.91F
WARRENTON*     FAIR      85  64  48 W3        29.90S

$$

VAZ055>057-291800-
NORTH AND CENTRAL PIEDMONT

CITY           SKY/WX    TMP DP  RH WIND       PRES   REMARKS
FREDERICKSBRG* FAIR      84  70  63 N7        29.88S
STAFFORD*      PTSUNNY   82  67  60 NW9       29.94R

$$

NCZ024-NYZ072-PAZ021-071-VAZ022-071-291800-
OTHER REGIONAL OBSERVATIONS

CITY           SKY/WX    TMP DP  RH WIND       PRES   REMARKS
NEW YORK CITY  CLOUDY    76  68  76 VRB3      29.88F
PHILADELPHIA   PTSUNNY   84  68  58 N13       29.84F
PITTSBURGH     PTSUNNY   78  66  66 CALM      29.98S
ROANOKE        CLOUDY    83  67  58 NW8       29.99S
RICHMOND       PTSUNNY   81  70  69 NW9       29.89F
RALEIGH        MOSUNNY   88  69  53 NW8       29.92S HX  92

$$

ANZ530>537-291800-
MARINE OBSERVATIONS

STATION/POSITION TIME  TEMP    WIND        PRES
                       AIR SEA DIR/SP/G
                 (UTC) (F)     (DEG/KT/KT) (MB)
THOMAS PT LIGHT  1700   79 83   40/  9/ 10 1012.4F
BALT KEY BRIDGE  1642   82     120/  3/  5 1011.0F
COVE POINT       1642   78     360/ 11/ 14 1012.0F
LEWISETTA        1642   81 86  350/  7/ 10 1011.1F
SOLOMONS ISLAND  1642   80 85  360/ 10/ 13   N/A
PINEY POINT      1642          340/  9/ 10   N/A

$$





USA.gov is the U.S. government's official web portal to all federal, state and local government web resources and services.